#timestamp,LO_Frequency,Hit,StdDev 
1593410415.2,286046986.9,N
1593410435.1,286046987.2,N
1593410436.0,286046987.2,N
1593410455.8,286046981.2,N
1593410475.6,286046974.4,Y
1593410495.5,286046981.6,P
1593410515.3,286046980.6,P
1593410535.2,286046978.6,P
1593410555.9,286046978.8,Y
1593410575.7,286046991.7,P
1593410595.6,286046996.0,N
1593410615.4,286046992.9,N
1593410635.2,286046994.9,N
1593410655.1,286046997.3,N
1593410656.0,286046997.3,N
1593410675.8,286046998.1,N
1593410695.7,286046999.0,N
1593410715.5,286047004.1,N
1593410735.3,286047000.2,N
1593410755.2,286046998.3,N
1593410775.0,286046992.8,N
1593410775.9,286046992.8,N
1593410795.7,286046996.9,N
1593410815.6,286047001.5,N
1593410835.4,286047005.6,N
1593410855.3,286047002.2,N
1593410875.1,286047002.9,N
1593410876.0,286047002.9,N
1593410895.8,286047006.9,N
1593410915.7,286047003.4,N
1593410935.5,286047000.2,N
1593410955.4,286046993.4,N
1593410975.2,286046997.0,N
1593410995.0,286046996.5,N
1593410995.9,286046996.5,N
1593411015.8,286046992.2,N
1593411035.6,286046993.9,N
1593411055.4,286047004.8,N
1593411075.3,286047008.2,N
1593411095.1,286047006.2,N
1593411115.9,286047010.1,N
1593411135.7,286047009.1,N
1593411155.5,286047005.3,N
1593411175.4,286047000.2,N
1593411195.2,286047001.3,N
1593411215.0,286047006.0,N
1593411215.9,286047006.0,N
1593411235.8,286047005.0,N
1593411255.6,286047003.7,N
1593411275.5,286047002.9,N
1593411295.3,286047005.3,N
1593411315.1,286047003.8,N
1593411335.9,286047002.2,N
1593411355.7,286047004.1,N
1593411375.5,286047007.1,N
1593411395.4,286047010.2,N
1593411415.2,286047017.7,Y
1593411435.1,286047017.1,P
1593411436.0,286047017.1,N
1593411455.8,286047008.4,N
1593411475.6,286047014.7,N
1593411495.5,286047025.7,Y
1593411515.3,286047022.7,P
1593411535.1,286047019.2,P
1593411555.9,286047009.6,N
1593411575.7,286047008.7,N
1593411595.6,286047005.9,N
1593411615.4,286047002.8,N
1593411635.2,286046996.7,N
1593411655.1,286046989.0,N
1593411656.0,286046989.0,N
1593411675.8,286046985.3,N
1593411695.6,286046987.8,N
1593411715.5,286046994.8,N
1593411735.3,286046989.7,N
1593411755.2,286046989.6,N
1593411775.9,286046986.2,N
1593411795.7,286046986.6,N
1593411815.6,286046985.2,N
1593411835.4,286046982.4,N
1593411855.2,286046988.8,N
1593411875.1,286046984.4,N
1593411876.0,286046984.4,N
1593411895.8,286046984.2,N
1593411915.7,286046983.0,N
1593411935.5,286046972.5,N
1593411955.3,286046973.5,N
1593411975.2,286046973.0,N
1593411995.9,286046969.3,N
1593412015.7,286046970.5,N
1593412035.6,286046976.9,N
1593412055.4,286046973.4,N
1593412075.3,286046983.0,N
1593412095.1,286046978.7,N
1593412096.0,286046978.7,N
1593412115.8,286046975.9,N
1593412135.7,286046972.6,Y
1593412155.5,286046987.4,P
1593412175.3,286046992.5,P
1593412195.2,286046984.4,P
1593412215.0,286046987.2,Y
1593412215.9,286046987.2,P
1593412235.8,286046999.3,P
1593412255.6,286047000.2,N
1593412275.4,286047000.2,N
1593412295.3,286047001.7,N
1593412315.1,286046995.1,N
1593412335.8,286046996.7,N
1593412355.7,286046994.7,N
1593412375.5,286046993.2,N
1593412395.4,286046994.5,N
1593412415.2,286046992.0,N
1593412435.0,286046990.6,N
1593412435.9,286046990.6,N
1593412455.8,286046988.7,N
1593412475.6,286046996.0,N
1593412495.4,286047000.9,N
1593412515.3,286046993.7,N
1593412535.1,286046993.6,N
1593412555.8,286046990.3,N
1593412575.7,286046993.7,N
1593412595.5,286046993.9,N
1593412615.4,286046996.4,N
1593412635.2,286047000.9,N
1593412655.0,286046995.6,N
1593412655.9,286046995.6,N
1593412675.8,286046993.1,N
1593412695.6,286046990.2,N
1593412715.4,286047000.1,N
1593412735.3,286046996.3,N
1593412755.1,286046996.0,N
1593412775.9,286046998.0,N
1593412795.7,286047000.2,N
1593412815.5,286046999.9,N
1593412835.4,286047006.8,N
1593412855.2,286047007.5,N
1593412875.1,286047006.3,N
1593412876.0,286047006.3,N
1593412895.8,286047005.2,N
1593412915.6,286047005.2,N
1593412935.5,286046996.5,N
1593412955.3,286046995.8,N
1593412975.2,286046993.9,N
1593412995.9,286046994.6,N
1593413015.7,286046989.1,N
1593413035.6,286046994.0,N
1593413055.4,286046990.9,N
1593413075.2,286046988.4,N
1593413095.1,286046982.8,Y
1593413096.0,286046982.8,P
1593413115.8,286046985.8,N
1593413135.7,286046988.1,N
1593413155.5,286046984.3,N
1593413175.3,286046984.7,Y
1593413195.2,286046996.3,P
1593413215.0,286046996.6,N
1593413215.9,286046996.6,N
1593413235.7,286046997.9,N
1593413255.6,286047002.5,N
1593413275.4,286047004.1,N
1593413295.3,286047005.7,N
1593413315.1,286047000.3,N
1593413316.0,286047000.3,N
1593413335.8,286046999.4,N
1593413355.7,286047004.1,N
1593413375.5,286046996.0,N
1593413395.3,286046998.8,N
1593413415.2,286047003.5,N
1593413435.0,286047004.6,N
1593413435.9,286047004.6,N
1593413455.8,286047002.6,N
1593413475.6,286046998.9,N
1593413495.4,286046991.9,N
1593413515.3,286046990.0,N
1593413535.1,286046989.5,N
1593413555.8,286046995.7,N
1593413575.7,286046995.4,N
1593413595.5,286047000.1,N
1593413615.4,286047005.8,N
1593413635.2,286047006.4,N
1593413655.0,286047001.4,N
1593413655.9,286047001.4,N
1593413675.8,286046999.5,N
1593413695.6,286047001.2,N
1593413715.4,286047001.4,N
1593413735.3,286046991.7,N
1593413755.1,286046991.3,N
1593413775.9,286046994.7,N
1593413795.7,286046987.9,N
1593413815.5,286046989.6,N
1593413835.4,286046992.8,N
1593413855.2,286046993.8,N
1593413875.1,286046992.5,N
1593413876.0,286046992.5,N
1593413895.8,286046995.2,N
1593413915.6,286046994.0,N
1593413935.5,286046989.4,N
1593413955.3,286046990.1,N
1593413975.1,286046986.9,N
1593413995.9,286046984.0,N
